Погода в Юмасе

Россия / Ханты-Мансийский автономный округ - Югра     59°31′42″N   66°24′54″E
темп.,
°C
ветер,
м/с
пор.,
м/с
влажн.,
%
обл.,
%
осадки,
мм/ч
давл.,
гПа
погр.,
м
7 марта, вс
вс723:00−11з3695100 0.3 1004208
02:00−11зсз4895100 0.2 1005232
05:00−18з349476 0.2 100852
08:00−20з23950 0.0 100926
11:00−14юз24880 0.0 1010271
14:00−10ююз358213 0.0 1009691
17:00−11ююв239156 0.0 1008123
20:00−15ююв3397100 0.1 100831
8 марта, пн
пн823:00−16вюв1298100 0.1 100620
02:00−16ссв2297100 0.1 100522
05:00−17с239799 0.1 100546
08:00−19сз239893 0.1 100542
11:00−16сз239394 0.1 1005247
14:00−12зсз2386100 0.1 1006548
17:00−13всв1294100 0.2 1006136
20:00−15вюв2296100 0.1 100625
9 марта, вт
вт923:00−14ююв2496100 0.2 100591
02:00−14юв359699 0.1 1003105
05:00−13вюв3696100 0.6 1001239
08:00−13юв2496100 0.6 1002114
11:00−10ююз139195 0.6 1003317
14:00−6юз2489100 0.2 1004459
17:00−5ююз3792100 1.0 1004648
20:00−8ююз3595100 0.3 1003123
10 марта, ср
ср1023:00−10ссз2396100 0.3 100249
02:00−16сз469877 0.0 100296
05:00−20сз469987 0.1 1004108
08:00−23сз359994 0.0 100597
11:00−19ссз459382 0.0 1006293
14:00−17ссз459095 0.0 1007389
17:00−18ссз359396 0.0 1006301
20:00−25сз359759 0.0 100767
11 марта, чт
чт1123:00−28сз349948 0.0 100744
02:00−29сз239985 0.0 100623
05:00−30сз2210052 0.0 100719
08:00−30зюз129721 0.0 100819
11:00−22ююз239359 0.0 1008334
14:00−19юз2388100 0.2 1008595
17:00−19ссз2394100 0.4 1009343
20:00−23с2297100 0.1 101028